www.pogodaiklimat.ru

ПОГОДА в Три реки, MI

  • Прогноз погоды в Три реки
  • Монитор погоды в Три реки
  • Климат в Три реки

АРХИВ ПОГОДЫ в Три реки

Время (UTC), дата Ветер
(напр.,м/с)
 
Видим.   Явления Облачность Т
(С)
Тd
(С)
f
(%)
Тe
(С)
Тes
(С)
Комфортность

P
(гПа)

Po
(гПа)
Тmin
(С)
Tmax
(С)
R
(мм)
SD
(см)
22:35 23.05 СЗ  7
{10} 
16 км    ясно  +23.1  +8.1  38  +24  +25  комфорт    987.2         
22:36 23.05 СЗ  7
{10} 
16 км    ясно  +23.0  +8.1  38  +24  +25  комфорт    987.2         
22:55 23.05 СЗ  16 км    ясно  +22.6  +8.6  41  +24  +25  комфорт    987.6  +22.6  +25.5     
23:15 23.05 СЗ  16 км    ясно  +22.2  +8.8  42  +24  +24  комфорт    987.6         
23:35 23.05 СЗ  16 км    ясно  +21.6  +9.1  45  +23  +23  комфорт    987.9         
23:36 23.05 СЗ  3
{4} 
16 км    ясно  +21.5  +9.2  45  +23  +23  комфорт    987.9         
23:55 23.05 СЗ  16 км    ясно  +20.6  +10.0  51  +23  +24  комфорт    987.9         
00:15 24.05   16 км    ясно  +19.5  +10.0  54  +20  +20      987.9         
00:35 24.05   16 км    ясно  +18.2  +10.5  61  +18  +18      988.2         
00:36 24.05   16 км    ясно  +18.2  +10.4  60  +18  +18      988.2         
00:55 24.05   16 км    ясно  +17.4  +10.8  65  +17  +17      988.2         
00:56 24.05   16 км    ясно  +17.4  +10.8  65  +17  +17      988.2         
01:15 24.05   16 км    ясно  +17.4  +11.0  66  +17  +17      988.5         
01:35 24.05   16 км    ясно  +16.1  +10.9  71  +16  +16      988.9         
01:55 24.05   16 км    ясно  +16.6  +11.2  70  +17  +17      989.2         
01:56 24.05   16 км    ясно  +16.6  +11.3  71  +17  +17      989.2         
02:15 24.05   16 км    ясно  +16.2  +12.0  76  +16  +16      989.2         
02:35 24.05   16 км    ясно  +15.3  +12.2  82  +15  +15      989.2         
02:55 24.05   16 км    ясно  +15.0  +12.0  82  +15  +15      989.2         
02:56 24.05   16 км    ясно  +14.9  +11.9  82  +15  +15      989.2         
03:15 24.05   16 км    ясно  +14.8  +11.9  83  +15  +15      989.5         
03:35 24.05   16 км    ясно  +14.8  +11.6  81  +15  +15      989.5         
03:55 24.05   16 км    ясно  +14.0  +11.3  84  +14  +14      988.9         
04:15 24.05   16 км    ясно  +13.6  +11.4  87  +13  +13      989.2         
04:16 24.05   16 км    ясно  +13.6  +11.5  87  +13  +13      989.2         
04:35 24.05   16 км    ясно  +13.1  +11.2  88  +13  +13      989.2         
04:55 24.05   16 км    ясно  +13.3  +11.6  89  +13  +13      989.2  +13.0  +22.6     
05:15 24.05   16 км    ясно  +13.2  +11.5  89  +13  +13      988.9         
05:16 24.05   16 км    ясно  +13.2  +11.5  89  +13  +13      988.9         
05:35 24.05   16 км    ясно  +13.6  +11.3  86  +13  +13      988.9         
05:55 24.05   16 км    ясно  +13.0  +11.2  89  +12  +12      989.2         
06:15 24.05   16 км    ясно  +12.9  +11.3  90  +12  +12      988.9         
06:16 24.05   16 км    ясно  +12.9  +11.3  90  +12  +12      989.2         
06:35 24.05   16 км    ясно  +12.6  +11.1  91  +12  +12      989.5         
06:36 24.05   16 км    ясно  +12.6  +11.2  91  +12  +12      989.5         
06:55 24.05   16 км    ясно  +12.5  +10.9  90  +12  +12      989.5         
06:56 24.05   16 км    ясно  +12.5  +10.9  90  +12  +12      989.5         
07:15 24.05   16 км    ясно  +12.6  +11.1  91  +12  +12      989.5         
07:35 24.05   16 км    ясно  +12.4  +11.0  91  +12  +12      989.5         
07:36 24.05   16 км    ясно  +12.4  +10.9  91  +12  +12      989.5         
07:55 24.05   16 км    ясно  +12.4  +10.8  90  +12  +12      989.9         
07:56 24.05   16 км    ясно  +12.3  +10.8  91  +12  +12      989.9         
08:15 24.05   16 км    ясно  +12.2  +10.9  92  +12  +12      989.9         
08:35 24.05   16 км    ясно  +12.1  +10.8  92  +11  +11      989.9         
08:36 24.05   16 км    ясно  +12.2  +10.8  91  +12  +12      990.2         
08:55 24.05   16 км    ясно  +12.5  +11.1  91  +12  +12      989.9         
08:56 24.05   16 км    ясно  +12.4  +11.1  92  +12  +12      989.9         
09:15 24.05   16 км    ясно  +12.3  +11.0  92  +12  +12      989.9         

 

Местоположение метеостанции Haines Memorial Airport: широта 41.9598 долгота -85.5934 высота над уровнем моря 251 м.

В архиве по умолчанию представлена погода в Три реки за последние 1-2 суток. Обновление информации о фактической погоде в базе происходит ежечасно! Архивные данные за месяц целиком и за предыдущие месяцы Вы можете получить, выбрав интересующий диапазон дат из раскрывающегося списка и нажав кнопку "Ввод!".

Внимание! Архив погоды МЕТАР в базе сайта хранится не более 60 дней. Нет смысла пытаться выбрать более раннюю дату.

Внимание! Время в таблицах - всемирное. Для получения местного времени необходимо прибавить поправку, которая в Три реки равна -5 ч.

Ветер - указаны скорость ветра в м/с и направление, откуда дует ветер: С - северный, СВ - северо-восточный, В - восточный, ЮВ - юго-восточный, Ю - южный, ЮЗ - юго-западный, З - западный, СЗ - северо-западный.
Видимость - горизонтальная дальность видимости в метрах или километрах. При видимости от 1 до 10 км при отсутствии осадков обычно наблюдается дымка, при ухудшении видимости до 1 км и менее - туман. В сухую погоду видимость может ухудшаться дымом, пылью или мглою.
Атмосферные явления - указаны явления, наблюдавшиеся в указанный момент времени.
Облачность - указаны через наклонную черту верхняя и нижняя облачность в баллах и высота нижней границы облаков в метрах. Внимание: облачность, как и прочие метеорологические величины в США измеряются автоматическими метеостанциями. Указанные значения в баллах носят условный характер и показывают процент времени, в течение которого, в среднем, лазерный луч высотомера отражался от облаков обратно.
T - Температура воздуха - температура, измеренная на высоте 2 м над землей.
Td - Температура точки росы - температура, при понижении до которой содержащийся в воздухе водяной пар достигнет насыщения.
f - Относительная влажность воздуха - влажноcть воздуха, измеренная на высоте 2 м над землей.
Te - Эффективная температура - температура, которую ощущает одетый по сезону человек в тени. Характеристика душности погоды. При расчете учитывается влияние влажности воздуха и скорости ветра на теплоощущения человека.
Tes - Эффективная температура на солнце - температура, которую ощущает человек, с поправкой на солнечный нагрев. Характеристика знойности погоды. Зависит от высоты солнца над горизонтом, облачности и скорости ветра. Ночью, в пасмурную погоду, а также при ветре 12 м/с и более поправка равна нулю.
P - Атмосферное давление - приведенное к уровню моря атмосферное давление.
Po - Атмосферное давление - измеренное на уровне метеостанции атмосферное давление.
Tmin - Минимальная температура - минимум температуры воздуха на высоте 2 м над землей.
Tmax - Максимальная температура - максимум температуры воздуха на высоте 2 м над землей.
R - Количество осадков - Количество выпавших осадков за 3 или 6 часов, мм.
SD - Снежный покров - Высота снежного покрова, см.